Главная страница
METAR-TAF:

METAR-TAF

Аэропорты :

Cape Parry, Северо-Западные Территории, Канада

широта: 70-06N, долгота: 124-43W, высота над уровнем моря: 87 м

Текущие метеонаблюдения

Эта сводка был подготовлена 10 минут назад, в 19:00 UTC
Ветер 11 Узел от западный-юго-западный
Температура 9°C
Влажность 87%
Давление 1011 hPa
Сплошная облачность на высоте 6000 фута

METAR: CZCP 191900Z AUTO 24011KT ////SM //// OVC060 09/07 A2985

Время: 13:10 (19:10 UTC)


TAF: отсутствует

Метеонаблюдения и прогнозы для более 4000 аэропортов (сводки METAR и TAF).

Имеющиеся станции представлены на карте желтыми и красными точками.

Чтобы увидеть название станции, наведите на нее мышь.

Затем щелкните, чтобы увидеть метеонаблюдения и метеопрогнозы.

Управление картой: чтобы увеличить масштаб, щелкните зеленые кнопки с черным крестиком; чтобы уменьшить масштаб, щелкните зеленую кнопку с тире; для просмотра соседних карт щелкайте зеленые стрелки.


METAR-TAF: